| time (UTC) | temp F | wind direction | speed knots | gust knots | rain 1hr in | rain 24hr in | rain mn in | humidity % | barometer mb |
| 20260508132829 | 48 | 224 | 13.9 | 18.2 | 0.00 | 0.00 | 0.00 | 58 | 1009.9 |
| 20260508124028 | 47 | 217 | 13.0 | 13.9 | 0.00 | 0.00 | 0.00 | 60 | 1009.9 |
| 20260508122026 | 46 | 225 | 12.2 | 13.9 | 0.00 | 0.00 | 0.00 | 61 | 1010.1 |
| 20260508121029 | 46 | 225 | 12.2 | 13.9 | 0.00 | 0.00 | 0.00 | 62 | 1010.1 |
| 20260508120027 | 46 | 225 | 13.0 | 14.8 | 0.00 | 0.00 | 0.00 | 63 | 1009.9 |
| 20260508115029 | 45 | 225 | 12.2 | 13.9 | 0.00 | 0.00 | 0.00 | 63 | 1009.9 |
| 20260508114029 | 45 | 225 | 13.9 | 17.4 | 0.00 | 0.00 | 0.00 | 63 | 1009.9 |
| 20260508113127 | 45 | 232 | 11.3 | 13.9 | 0.00 | 0.00 | 0.00 | 62 | 1009.9 |
| 20260508111128 | 45 | 225 | 10.4 | 13.0 | 0.00 | 0.00 | 0.00 | 61 | 1009.6 |
| 20260508110128 | 45 | 225 | 9.6 | 10.4 | 0.00 | 0.00 | 0.00 | 62 | 1009.6 |
| 20260508104127 | 43 | 225 | 7.0 | 7.0 | 0.00 | 0.00 | 0.00 | 65 | 1009.5 |
| 20260508103226 | 43 | 225 | 6.1 | 7.0 | 0.00 | 0.00 | 0.00 | 64 | 1009.2 |
| 20260508102227 | 42 | 225 | 6.1 | 7.0 | 0.00 | 0.00 | 0.00 | 70 | 1009.1 |
| 20260508101226 | 41 | 270 | 2.6 | 4.3 | 0.00 | 0.00 | 0.00 | 70 | 1008.9 |
| 20260508100228 | 41 | 270 | 1.7 | 3.5 | 0.00 | 0.00 | 0.00 | 71 | 1008.9 |
| 20260508095227 | 42 | 235 | 3.5 | 6.1 | 0.00 | 0.00 | 0.00 | 69 | 1008.8 |
| 20260508093326 | 42 | 252 | 2.6 | 3.5 | 0.00 | 0.00 | 0.00 | 67 | 1008.7 |
| 20260508092328 | 43 | 225 | 7.0 | 7.8 | 0.00 | 0.00 | 0.00 | 64 | 1008.5 |
| 20260508090327 | 42 | 225 | 7.0 | 7.8 | 0.00 | 0.00 | 0.00 | 69 | 1008.3 |
| 20260508084428 | 41 | 270 | 0.9 | 2.6 | 0.00 | 0.00 | 0.00 | 68 | 1008.2 |
| 20260508083428 | 41 | 270 | 3.5 | 6.1 | 0.00 | 0.00 | 0.00 | 69 | 1008.2 |
| 20260508082527 | 41 | 255 | 4.3 | 8.7 | 0.00 | 0.00 | 0.00 | 71 | 1008.3 |
| 20260508080527 | 42 | 270 | 0.9 | 3.5 | 0.00 | 0.00 | 0.00 | 67 | 1008.4 |
| 20260508075529 | 44 | 257 | 1.7 | 3.5 | 0.00 | 0.00 | 0.00 | 64 | 1008.3 |
| 20260508074528 | 44 | 225 | 7.0 | 7.8 | 0.00 | 0.00 | 0.00 | 64 | 1008.1 |
| 20260508072530 | 43 | 270 | 2.6 | 4.3 | 0.00 | 0.00 | 0.00 | 67 | 1008.0 |
| 20260508071530 | 43 | 225 | 6.1 | 7.0 | 0.00 | 0.00 | 0.00 | 65 | 1008.0 |
| 20260508070529 | 44 | 225 | 7.8 | 7.8 | 0.00 | 0.01 | 0.00 | 63 | 1008.1 |
| 20260508065527 | 44 | 225 | 8.7 | 9.6 | 0.00 | 0.01 | 0.00 | 61 | 1008.0 |
| 20260508064529 | 45 | 225 | 8.7 | 9.6 | 0.00 | 0.01 | 0.00 | 60 | 1008.0 |
| 20260508063628 | 45 | 225 | 7.8 | 9.6 | 0.00 | 0.01 | 0.00 | 61 | 1008.2 |
| 20260508062627 | 45 | 225 | 6.1 | 7.0 | 0.00 | 0.01 | 0.00 | 62 | 1008.3 |
| 20260508061627 | 45 | 225 | 7.0 | 7.8 | 0.00 | 0.01 | 0.00 | 62 | 1008.2 |
| 20260508060627 | 44 | 225 | 7.8 | 9.6 | 0.00 | 0.02 | 0.00 | 65 | 1008.2 |
| 20260508055628 | 43 | 270 | 0.9 | 1.7 | 0.00 | 0.10 | 0.00 | 66 | 1008.5 |
| 20260508054726 | 43 | 270 | 1.7 | 2.6 | 0.00 | 0.24 | 0.00 | 67 | 1008.6 |
| 20260508053730 | 45 | 270 | 0.0 | 0.9 | 0.00 | 0.27 | 0.00 | 65 | 1008.7 |
| 20260508052728 | 46 | 225 | 7.0 | 7.8 | 0.00 | 0.27 | 0.00 | 60 | 1008.5 |
| 20260508044027 | 46 | 277 | 1.7 | 2.6 | 0.00 | 0.27 | 0.00 | 60 | 1008.9 |
| 20260508043028 | 46 | 225 | 5.2 | 7.8 | 0.00 | 0.27 | 0.00 | 60 | 1009.0 |
| 20260508042127 | 45 | 239 | 4.3 | 6.1 | 0.00 | 0.27 | 0.00 | 62 | 1008.8 |
| 20260508041129 | 45 | 225 | 3.5 | 4.3 | 0.00 | 0.27 | 0.00 | 62 | 1009.0 |
| 20260508040128 | 46 | 254 | 2.6 | 5.2 | 0.00 | 0.27 | 0.00 | 63 | 1009.0 |
| 20260508035123 | 47 | 233 | 3.5 | 5.2 | 0.00 | 0.27 | 0.27 | 58 | 1009.1 |
| 20260508034222 | 48 | 225 | 6.1 | 7.8 | 0.00 | 0.27 | 0.27 | 54 | 1009.1 |
| 20260508033226 | 48 | 225 | 6.1 | 7.8 | 0.00 | 0.27 | 0.27 | 54 | 1009.3 |
| 20260508032223 | 48 | 267 | 4.3 | 6.1 | 0.00 | 0.27 | 0.27 | 53 | 1009.1 |
| 20260508031222 | 48 | 247 | 3.5 | 4.3 | 0.00 | 0.27 | 0.27 | 50 | 1009.1 |
| 20260508030223 | 48 | 270 | 4.3 | 6.1 | 0.00 | 0.28 | 0.27 | 52 | 1009.1 |
| 20260508025225 | 48 | 252 | 4.3 | 6.1 | 0.00 | 0.28 | 0.27 | 55 | 1008.9 |
| 20260508024225 | 49 | 269 | 2.6 | 3.5 | 0.00 | 0.30 | 0.27 | 56 | 1008.9 |
| 20260508021324 | 50 | 263 | 7.0 | 9.6 | 0.00 | 0.38 | 0.27 | 47 | 1008.8 |
| 20260508020322 | 50 | 266 | 6.1 | 7.8 | 0.00 | 0.41 | 0.27 | 46 | 1009.0 |
| 20260508015324 | 51 | 251 | 9.6 | 12.2 | 0.00 | 0.48 | 0.27 | 48 | 1009.1 |
| 20260508013324 | 51 | 258 | 8.7 | 13.9 | 0.00 | 0.54 | 0.27 | 48 | 1009.0 |
| 20260508012422 | 51 | 249 | 13.0 | 16.5 | 0.00 | 0.57 | 0.27 | 48 | 1008.8 |
| 20260508011425 | 52 | 249 | 9.6 | 12.2 | 0.00 | 0.59 | 0.27 | 48 | 1008.8 |
| 20260508005523 | 53 | 255 | 12.2 | 13.9 | 0.00 | 0.64 | 0.27 | 50 | 1008.5 |
| 20260508004622 | 52 | 260 | 12.2 | 15.6 | 0.00 | 0.64 | 0.27 | 56 | 1008.5 |
| 20260508003624 | 52 | 270 | 5.2 | 7.8 | 0.00 | 0.67 | 0.27 | 62 | 1008.3 |
| 20260508002623 | 50 | 247 | 3.5 | 6.1 | 0.00 | 0.72 | 0.27 | 77 | 1008.0 |
| 20260508001623 | 50 | 225 | 5.2 | 6.1 | 0.00 | 0.76 | 0.27 | 77 | 1007.9 |
| 20260508000624 | 50 | 198 | 2.6 | 3.5 | 0.00 | 0.81 | 0.27 | 76 | 1007.7 |
| 20260507235623 | 50 | 180 | 2.6 | 2.6 | 0.00 | 0.88 | 0.27 | 76 | 1007.6 |
| 20260507234624 | 50 | 180 | 0.9 | 1.7 | 0.00 | 0.89 | 0.27 | 77 | 1007.4 |
| 20260507233624 | 50 | 90 | 2.6 | 2.6 | 0.00 | 0.90 | 0.27 | 76 | 1007.1 |
| 20260507232625 | 50 | 90 | 4.3 | 5.2 | 0.00 | 0.91 | 0.27 | 76 | 1007.0 |
| 20260507231624 | 50 | 90 | 5.2 | 6.1 | 0.00 | 0.91 | 0.27 | 75 | 1006.9 |
| 20260507230623 | 50 | 90 | 7.8 | 8.7 | 0.00 | 0.91 | 0.27 | 75 | 1006.8 |
| 20260507225622 | 50 | 90 | 6.1 | 7.0 | 0.00 | 0.92 | 0.27 | 74 | 1006.7 |
| 20260507224623 | 49 | 67 | 7.0 | 7.8 | 0.00 | 0.92 | 0.27 | 76 | 1006.4 |
| 20260507223624 | 50 | 67 | 7.0 | 7.8 | 0.00 | 0.93 | 0.27 | 76 | 1006.3 |
| 20260507222625 | 50 | 90 | 4.3 | 4.3 | 0.00 | 0.94 | 0.27 | 75 | 1006.4 |
| 20260507221624 | 50 | 90 | 6.1 | 7.0 | 0.00 | 0.95 | 0.27 | 75 | 1006.2 |
| 20260507220626 | 50 | 90 | 6.1 | 7.0 | 0.00 | 0.96 | 0.27 | 74 | 1006.5 |
| 20260507215623 | 51 | 90 | 6.1 | 7.8 | 0.00 | 0.97 | 0.27 | 74 | 1006.6 |
| 20260507214623 | 51 | 90 | 7.0 | 7.8 | 0.00 | 0.98 | 0.27 | 73 | 1006.6 |
| 20260507213623 | 52 | 90 | 7.8 | 10.4 | 0.00 | 0.98 | 0.27 | 72 | 1006.6 |
| 20260507212624 | 52 | 128 | 7.8 | 8.7 | 0.00 | 0.98 | 0.27 | 70 | 1006.7 |
| 20260507211622 | 52 | 135 | 7.0 | 8.7 | 0.00 | 0.98 | 0.27 | 70 | 1006.8 |
| 20260507210623 | 52 | 112 | 10.4 | 11.3 | 0.00 | 0.98 | 0.27 | 69 | 1006.6 |
| 20260507204724 | 52 | 111 | 9.6 | 10.4 | 0.00 | 0.98 | 0.27 | 70 | 1006.5 |
| 20260507203822 | 53 | 116 | 7.8 | 9.6 | 0.00 | 0.98 | 0.27 | 69 | 1006.5 |
| 20260507202826 | 53 | 126 | 9.6 | 11.3 | 0.00 | 0.98 | 0.27 | 69 | 1006.4 |
| 20260507201823 | 53 | 113 | 11.3 | 13.0 | 0.00 | 0.98 | 0.27 | 66 | 1006.4 |
| 20260507200823 | 53 | 131 | 12.2 | 14.8 | 0.00 | 0.98 | 0.27 | 66 | 1006.4 |
| 20260507195822 | 52 | 125 | 13.9 | 16.5 | 0.00 | 0.98 | 0.27 | 67 | 1006.4 |
| 20260507194822 | 53 | 132 | 14.8 | 16.5 | 0.00 | 0.98 | 0.27 | 67 | 1006.6 |
| 20260507193823 | 53 | 131 | 13.9 | 16.5 | 0.00 | 0.98 | 0.27 | 65 | 1006.5 |
| 20260507191922 | 53 | 123 | 13.0 | 14.8 | 0.00 | 0.98 | 0.27 | 67 | 1006.5 |
| 20260507190923 | 53 | 135 | 13.0 | 15.6 | 0.00 | 0.98 | 0.27 | 69 | 1006.5 |
| 20260507185924 | 53 | 135 | 15.6 | 19.1 | 0.00 | 0.98 | 0.27 | 69 | 1006.5 |
| 20260507185022 | 54 | 131 | 13.9 | 15.6 | 0.00 | 0.98 | 0.27 | 69 | 1006.5 |
| 20260507184023 | 54 | 119 | 12.2 | 15.6 | 0.00 | 0.98 | 0.27 | 70 | 1006.6 |
| 20260507183122 | 54 | 126 | 12.2 | 13.9 | 0.00 | 0.98 | 0.27 | 71 | 1006.6 |
| 20260507182124 | 54 | 113 | 13.0 | 14.8 | 0.00 | 0.98 | 0.27 | 70 | 1006.8 |
| 20260507181122 | 54 | 115 | 13.0 | 13.9 | 0.00 | 0.98 | 0.27 | 71 | 1006.8 |
| 20260507180123 | 54 | 131 | 13.0 | 14.8 | 0.00 | 0.98 | 0.27 | 68 | 1006.6 |
| 20260507175123 | 54 | 135 | 10.4 | 14.8 | 0.00 | 0.98 | 0.27 | 69 | 1006.9 |
| 20260507174125 | 54 | 126 | 7.0 | 8.7 | 0.00 | 0.98 | 0.27 | 71 | 1006.9 |
| 20260507173125 | 54 | 135 | 8.7 | 10.4 | 0.00 | 0.98 | 0.27 | 70 | 1006.8 |
| 20260507172222 | 54 | 135 | 8.7 | 9.6 | 0.00 | 0.98 | 0.27 | 70 | 1006.9 |
| 20260507171222 | 53 | 135 | 8.7 | 9.6 | 0.00 | 0.98 | 0.27 | 71 | 1007.0 |
| 20260507170224 | 53 | 135 | 7.8 | 8.7 | 0.00 | 0.98 | 0.27 | 71 | 1007.0 |
| 20260507165225 | 53 | 135 | 8.7 | 9.6 | 0.00 | 0.98 | 0.27 | 70 | 1007.1 |
| 20260507164323 | 53 | 135 | 7.8 | 8.7 | 0.00 | 0.98 | 0.27 | 70 | 1007.2 |
| 20260507163323 | 53 | 135 | 7.0 | 7.8 | 0.00 | 0.98 | 0.27 | 70 | 1007.3 |
| 20260507161424 | 54 | 135 | 7.0 | 7.8 | 0.00 | 0.98 | 0.27 | 64 | 1007.5 |
| 20260507160522 | 54 | 135 | 3.5 | 4.3 | 0.00 | 0.98 | 0.27 | 60 | 1007.5 |
| 20260507155524 | 54 | 135 | 2.6 | 3.5 | 0.00 | 0.98 | 0.27 | 63 | 1007.6 |
| 20260507151725 | 52 | 135 | 5.2 | 6.1 | 0.00 | 0.98 | 0.27 | 69 | 1008.1 |
| 20260507145825 | 53 | 135 | 4.3 | 4.3 | 0.00 | 0.98 | 0.27 | 68 | 1008.1 |
| 20260507143825 | 52 | 180 | 3.5 | 3.5 | 0.00 | 0.98 | 0.27 | 69 | 1008.4 |
| 20260507142825 | 53 | 180 | 2.6 | 2.6 | 0.00 | 0.98 | 0.27 | 69 | 1008.5 |
| 20260507141824 | 53 | 180 | 1.7 | 2.6 | 0.00 | 0.98 | 0.27 | 70 | 1008.6 |
| 20260507140823 | 53 | 202 | 2.6 | 2.6 | 0.00 | 0.98 | 0.27 | 71 | 1008.6 |
| 20260507135824 | 51 | 225 | 2.6 | 2.6 | 0.00 | 0.98 | 0.27 | 71 | 1008.7 |
| 20260507134922 | 51 | 231 | 4.3 | 5.2 | 0.00 | 0.98 | 0.27 | 72 | 1008.6 |